Temp
71 70 69 68 67 67 66 66 67 66 67 69 69 69 70 71 70 68 69 69 69 70 70 71 71 72 73 74 72 73 71 71 70 70 69 68 66 67 69 70 70 72 73 72 73 70 66 62 61 64 64 63 65 66 68 69 69 68 67 69 71 71 70
71 71 71 70 68 67 66 66 67 68 68 68 69 69 71 72 71 69 69 70 69 69 71 71 71 72 71 71 70 70 70 70 71 69 66 64 66 65 66 67 70 71 72 71 71 72 68 64 62 61 59 63 66 67 67 68 68 68 69 69 71 71 70
70 70 72 70 70 70 68 67 68 69 70 70 70 70 69 72 72 72 70 70 70 69 70 70 70 68 69 69 69 68 69 69 70 69 69 67 69 68 69 69 69 69 70 69 70 69 70 70 65 63 63 63 62 64 66 67 68 69 70 69 70 73 71
69 69 70 69 70 70 69 69 70 70 71 71 71 71 70 70 69 71 70 70 71 70 70 72 71 71 70 68 68 68 68 68 67 67 68 70 69 70 70 72 71 71 69 68 68 70 69 66 65 64 65 68 65 62 64 67 69 71 72 70 70 70 70
69 70 70 68 69 69 69 69 70 70 70 70 70 70 69 70 70 70 69 70 71 71 71 72 72 73 70 70 67 67 67 66 66 65 66 68 69 71 71 73 68 69 71 73 73 72 70 69 68 65 65 67 67 68 68 67 70 71 71 72 72 71 71
71 71 70 69 70 70 70 70 70 70 70 70 70 70 70 69 70 69 69 70 71 71 72 72 72 72 71 71 68 66 66 65 66 68 66 67 70 70 72 72 68 69 71 74 74 73 73 72 70 66 68 69 64 65 69 70 68 72 72 72 73 73 73
70 70 71 70 70 71 71 71 71 71 71 71 71 71 70 70 70 70 70 70 72 73 72 71 72 72 71 71 68 67 68 68 68 67 68 71 71 71 73 72 72 70 72 73 74 73 71 71 69 68 66 66 67 67 69 70 70 69 69 73 73 74 73
71 71 71 71 70 70 70 71 71 72 72 72 72 71 70 70 69 69 69 69 70 71 72 71 71 71 71 70 70 69 70 71 70 70 71 70 70 70 70 72 72 72 72 74 74 74 75 73 71 68 67 63 63 65 65 69 69 69 70 71 73 73 72
71 71 70 70 71 71 70 71 70 70 71 71 70 70 69 70 69 69 70 70 70 70 70 70 71 72 72 71 71 71 70 71 70 69 70 70 70 70 70 71 72 73 72 73 75 75 77 75 73 71 71 69 64 60 64 64 67 68 71 70 71 73 73
69 69 69 69 69 69 70 70 71 70 69 71 70 69 68 69 69 70 71 70 70 70 70 70 71 71 71 71 71 70 70 70 71 71 71 71 71 70 71 70 72 72 72 72 73 74 74 74 74 73 75 72 71 66 62 62 63 66 68 72 69 71 74
70 70 70 69 69 68 68 69 69 69 70 70 70 69 69 69 68 68 70 69 69 70 70 71 72 71 71 71 71 71 71 71 70 70 70 72 70 71 71 71 73 73 72 72 72 72 72 72 73 74 74 75 74 70 67 65 64 68 68 70 73 72 73
70 70 70 70 69 69 68 69 69 69 69 69 70 69 69 70 69 69 69 69 69 69 69 70 70 70 71 71 70 70 68 70 71 70 69 69 70 70 70 70 71 72 70 71 71 71 71 72 73 74 74 74 74 73 70 70 65 68 72 67 70 75 74
70 69 69 68 69 70 69 69 68 67 68 70 70 70 71 70 70 70 69 69 69 69 70 69 70 70 70 71 70 71 69 69 71 70 70 69 70 70 70 70 71 71 70 71 71 71 71 72 72 74 72 72 72 72 72 71 69 67 69 71 72 73 74
67 69 68 69 69 69 68 68 69 69 69 69 69 70 70 70 71 70 70 70 70 69 69 68 69 70 70 69 69 69 69 70 71 70 69 68 69 69 71 72 71 70 70 71 71 71 72 72 71 71 72 72 72 71 72 71 70 68 68 69 71 73 73
68 68 68 68 69 69 68 68 67 68 68 68 70 71 71 69 70 70 70 70 70 71 70 70 69 70 70 68 67 68 69 70 70 70 69 70 69 69 69 70 70 69 70 72 71 74 73 73 74 73 72 72 73 71 72 74 72 70 67 67 69 72 71
67 67 67 68 68 68 67 67 68 68 69 68 68 71 70 70 69 70 70 70 70 70 70 70 69 70 70 70 70 68 69 70 70 69 70 70 72 70 69 68 68 67 67 69 70 72 72 73 75 75 73 74 73 72 74 75 72 70 69 68 70 70 70
66 67 67 67 67 67 67 66 67 68 69 69 70 68 69 71 70 70 70 70 70 70 70 69 70 71 72 72 71 71 70 70 70 72 72 72 72 72 70 68 67 67 68 68 69 70 71 72 72 74 73 72 72 71 72 71 73 73 72 70 69 73 73
65 66 66 67 66 66 67 67 68 69 68 69 70 70 69 70 71 71 70 71 71 71 71 71 71 70 69 69 71 71 71 71 71 71 71 71 68 72 71 70 68 69 68 68 67 69 70 69 73 73 73 74 73 72 70 71 73 73 71 70 70 72 73
63 63 64 64 65 66 67 68 68 68 71 70 69 70 71 71 73 73 73 72 73 72 72 71 72 72 71 70 70 70 70 71 71 71 70 70 71 70 70 71 69 69 70 69 68 69 69 70 72 71 73 74 75 72 69 69 70 71 72 73 72 69 69
62 63 63 63 64 66 67 68 69 69 69 70 70 70 70 71 70 72 72 71 72 71 72 72 71 70 71 72 71 71 70 70 70 70 70 70 70 69 70 70 69 69 70 71 70 69 69 69 69 70 71 70 73 71 68 70 72 71 70 71 72 72 70
62 62 64 65 65 65 66 67 68 69 69 69 70 71 70 70 70 71 70 71 70 70 70 70 71 71 72 71 71 71 70 70 70 70 69 70 69 70 69 69 70 70 70 71 72 71 69 70 69 69 69 69 70 68 69 69 69 70 69 69 70 69 71
60 59 61 62 62 63 64 66 67 68 68 69 68 70 69 70 69 70 70 69 70 69 69 68 70 70 71 70 72 70 70 71 71 71 71 71 70 70 71 70 70 71 67 60 54 58 61 62 71 71 69 69 68 68 69 69 69 69 70 69 69 70 69
59 59 59 59 59 61 63 64 65 65 66 66 67 67 68 67 68 68 69 69 67 65 64 62 52 45 49 66 69 71 69 70 72 72 71 71 70 70 71 71 69 60 57 55 52 49 48 50 55 65 71 70 69 69 69 68 69 70 70 69 69 69 67
57 57 57 57 58 60 61 62 62 63 63 63 64 65 66 67 67 67 68 67 65 61 56 51 40 42 43 46 63 66 68 69 69 70 71 71 71 71 70 71 71 62 59 57 58 45 47 46 47 47 49 56 62 70 70 68 69 69 69 69 70 69 68
55 55 56 55 56 57 58 60 60 60 60 60 61 63 63 64 64 65 65 63 60 57 51 41 40 41 41 41 49 65 67 67 67 68 69 70 72 72 71 70 69 68 69 70 71 66 55 45 45 45 45 46 47 48 52 67 70 68 67 68 68 68 68
55 55 55 55 55 55 56 56 57 57 57 58 59 59 60 60 61 62 62 61 59 57 53 41 40 40 40 40 40 56 70 68 68 68 67 68 68 68 69 68 69 68 70 59 63 69 70 65 47 42 44 43 44 44 45 45 50 69 72 68 68 68 68
54 54 54 55 55 55 55 54 55 56 57 57 57 57 57 57 58 59 59 59 57 55 52 43 41 40 41 40 42 54 67 65 65 66 66 67 67 67 67 67 68 68 69 68 68 68 69 68 68 64 62 64 66 55 43 43 43 43 54 69 70 69 70
53 53 53 53 54 53 53 54 54 55 55 55 55 55 56 56 55 56 57 57 56 53 49 41 41 41 41 41 43 53 64 64 65 65 64 64 64 64 65 65 65 66 67 67 68 65 67 68 68 66 67 67 68 68 66 64 64 66 65 66 69 71 71
53 54 53 52 51 51 51 52 52 53 53 53 53 54 55 55 55 56 56 56 56 54 50 40 40 41 41 42 47 62 63 63 64 64 64 64 64 65 65 64 65 65 66 66 59 47 52 64 66 66 66 67 68 67 67 58 49 50 57 65 68 68 68
50 51 50 48 48 49 50 50 50 52 51 50 50 49 49 50 52 53 54 55 55 54 52 43 39 40 41 41 51 61 61 63 63 62 62 62 64 64 64 64 64 65 64 65 54 46 44 46 64 65 65 66 66 67 66 61 43 40 40 40 39 40 40
50 49 48 47 46 46 47 48 47 49 48 47 47 48 49 49 49 49 50 52 53 54 53 45 39 40 40 40 47 59 60 61 60 60 61 62 63 64 61 52 56 63 63 66 49 45 44 50 62 64 65 64 65 65 66 64 59 55 39 40 39 39 40
48 48 48 49 49 47 46 46 48 49 48 47 47 48 49 48 47 47 48 49 48 51 53 49 41 39 39 40 49 58 59 60 59 58 60 61 61 62 62 58 51 52 55 51 40 41 41 49 62 64 65 65 64 64 66 67 62 60 59 58 57 56 55
46 46 47 48 50 50 51 50 48 46 46 46 44 45 45 45 45 45 47 49 49 50 51 52 47 39 40 40 40 53 57 57 56 56 57 58 58 60 60 61 58 44 41 41 40 39 40 40 56 62 63 63 63 64 67 67 65 64 62 60 61 60 61
49 49 49 48 48 49 51 50 51 51 50 49 46 44 43 43 43 44 45 47 49 49 49 51 50 39 39 39 39 43 56 53 54 54 55 56 58 57 59 59 60 49 41 41 40 39 40 40 41 55 59 61 63 62 58 65 62 49 61 61 60 59 59
49 49 50 51 51 50 51 52 51 52 53 52 50 49 47 46 45 44 45 46 47 48 48 45 49 43 39 39 38 39 50 51 47 50 51 55 56 57 57 57 57 49 40 39 39 39 39 40 39 49 54 47 45 43 57 60 62 59 59 60 60 59 59
49 49 49 50 50 50 51 51 51 51 51 50 50 50 50 50 49 49 48 49 48 48 48 47 42 45 41 38 38 39 37 43 38 47 50 50 52 53 54 54 54 44 38 38 38 38 38 38 40 48 43 41 41 40 44 58 59 58 58 58 58 58 58
49 49 49 49 49 49 49 50 50 50 50 50 50 50 51 50 50 50 50 50 51 51 51 50 46 41 42 39 38 38 38 37 37 45 47 49 51 51 52 52 48 39 38 38 37 38 38 38 44 41 40 40 39 40 52 55 56 57 55 54 54 56 57
MSLP
1018.11 1018.43 1018.63 1018.91 1019.07 1019.23 1019.39 1019.55 1019.63 1019.79 1019.83 1019.79 1019.95 1019.99 1019.95 1019.95 1020.15 1020.35 1020.39 1020.47 1020.59 1020.59 1020.71 1020.75 1020.87 1020.87 1020.95 1021.03 1021.23 1021.31 1021.55 1021.71 1021.91 1022.23 1022.63 1023.03 1023.31 1023.07 1023.03 1022.99 1022.95 1022.75 1022.95 1023.11 1023.15 1023.63 1024.43 1025.55 1026.19 1026.15 1026.23 1026.23 1026.11 1026.07 1026.03 1026.03 1026.07 1026.23 1026.27 1026.11 1025.99 1026.03 1026.03
1018.03 1018.31 1018.47 1018.71 1018.99 1019.23 1019.51 1019.63 1019.67 1019.79 1019.87 1019.91 1019.87 1019.91 1019.91 1019.87 1020.07 1020.23 1020.35 1020.39 1020.47 1020.67 1020.63 1020.75 1020.83 1020.99 1021.15 1021.31 1021.55 1021.71 1021.87 1021.99 1022.15 1022.51 1022.95 1023.03 1022.91 1023.23 1023.27 1023.19 1022.95 1022.99 1023.15 1023.31 1023.47 1023.39 1024.15 1025.03 1025.83 1026.19 1026.63 1026.43 1026.15 1026.19 1026.27 1026.31 1026.35 1026.35 1026.31 1026.31 1026.23 1026.19 1026.27
1018.15 1018.35 1018.31 1018.67 1018.83 1018.99 1019.39 1019.59 1019.63 1019.67 1019.67 1019.75 1019.83 1019.87 1019.95 1019.91 1019.95 1020.03 1020.19 1020.35 1020.39 1020.55 1020.63 1020.83 1021.03 1021.31 1021.47 1021.59 1021.75 1021.91 1021.99 1022.23 1022.35 1022.67 1022.79 1022.95 1022.87 1022.91 1022.87 1022.91 1023.11 1023.27 1023.31 1023.63 1023.79 1023.91 1024.07 1024.19 1025.03 1025.87 1026.11 1026.19 1026.39 1026.51 1026.43 1026.47 1026.47 1026.47 1026.43 1026.43 1026.35 1026.27 1026.35
1018.11 1018.27 1018.55 1018.79 1018.87 1019.03 1019.23 1019.39 1019.47 1019.55 1019.55 1019.67 1019.75 1019.83 1019.91 1020.03 1020.07 1020.07 1020.15 1020.23 1020.27 1020.43 1020.59 1020.75 1020.99 1021.15 1021.35 1021.59 1021.87 1022.03 1022.23 1022.43 1022.71 1022.87 1022.87 1022.71 1022.75 1022.71 1022.71 1022.59 1022.75 1022.71 1022.99 1023.35 1023.67 1023.75 1023.99 1024.55 1025.03 1025.67 1025.71 1025.63 1026.15 1026.71 1026.71 1026.67 1026.55 1026.47 1026.43 1026.51 1026.47 1026.51 1026.55
1017.87 1018.11 1018.35 1018.67 1018.79 1018.95 1019.07 1019.31 1019.39 1019.47 1019.63 1019.67 1019.75 1019.83 1019.95 1019.95 1020.03 1020.11 1020.23 1020.23 1020.27 1020.35 1020.51 1020.55 1020.71 1020.87 1021.19 1021.47 1021.91 1022.11 1022.11 1022.35 1022.67 1022.91 1022.91 1022.79 1022.67 1022.59 1022.59 1022.43 1022.87 1022.83 1022.71 1022.71 1022.95 1023.31 1023.67 1024.07 1024.43 1025.23 1025.59 1025.79 1026.07 1026.19 1026.47 1026.67 1026.47 1026.47 1026.47 1026.43 1026.47 1026.63 1026.63
1017.59 1017.79 1018.11 1018.43 1018.59 1018.75 1018.91 1019.11 1019.27 1019.39 1019.55 1019.67 1019.71 1019.83 1019.95 1020.03 1019.99 1020.15 1020.19 1020.23 1020.27 1020.31 1020.39 1020.47 1020.63 1020.87 1021.19 1021.39 1021.71 1021.99 1022.19 1022.39 1022.59 1022.67 1022.87 1022.79 1022.47 1022.51 1022.47 1022.51 1022.91 1023.15 1022.95 1022.55 1022.71 1023.15 1023.39 1023.67 1024.15 1025.07 1025.47 1025.51 1026.11 1026.43 1026.39 1026.31 1026.47 1026.39 1026.35 1026.51 1026.47 1026.55 1026.59
1017.43 1017.63 1017.87 1018.19 1018.43 1018.47 1018.63 1018.87 1018.99 1019.15 1019.31 1019.39 1019.55 1019.67 1019.79 1019.91 1019.95 1019.99 1020.07 1020.15 1020.15 1020.23 1020.39 1020.51 1020.63 1020.83 1021.19 1021.39 1021.83 1022.07 1022.15 1022.15 1022.31 1022.63 1022.55 1022.19 1022.23 1022.23 1022.23 1022.47 1022.51 1022.95 1022.71 1022.75 1022.83 1023.11 1023.47 1023.79 1024.27 1024.63 1025.27 1025.67 1025.79 1026.07 1026.19 1026.11 1026.23 1026.31 1026.55 1026.39 1026.47 1026.51 1026.63
1017.23 1017.51 1017.71 1017.87 1018.19 1018.47 1018.63 1018.79 1018.95 1019.03 1019.11 1019.31 1019.39 1019.59 1019.75 1019.87 1019.99 1020.03 1020.15 1020.23 1020.31 1020.39 1020.47 1020.59 1020.67 1020.79 1020.99 1021.39 1021.63 1021.83 1021.99 1021.99 1022.11 1022.15 1022.11 1022.19 1022.23 1022.23 1022.35 1022.35 1022.47 1022.55 1022.75 1022.75 1022.83 1022.95 1023.03 1023.47 1023.79 1024.47 1024.87 1025.83 1026.27 1026.11 1026.23 1026.07 1026.19 1026.19 1026.27 1026.39 1026.43 1026.55 1026.63
1017.15 1017.39 1017.67 1017.91 1018.11 1018.27 1018.59 1018.75 1018.95 1019.07 1019.11 1019.27 1019.47 1019.63 1019.79 1019.79 1019.91 1020.03 1020.07 1020.15 1020.23 1020.39 1020.47 1020.51 1020.63 1020.71 1020.83 1021.03 1021.23 1021.51 1021.67 1021.75 1021.91 1022.03 1021.99 1022.07 1022.15 1022.15 1022.27 1022.35 1022.43 1022.55 1022.71 1022.75 1022.71 1022.87 1022.87 1023.07 1023.47 1023.91 1024.15 1024.55 1025.43 1026.47 1026.31 1026.43 1026.19 1026.23 1026.11 1026.31 1026.51 1026.47 1026.59
1017.31 1017.55 1017.75 1017.99 1018.19 1018.39 1018.55 1018.71 1018.83 1019.03 1019.19 1019.23 1019.43 1019.63 1019.83 1019.87 1019.95 1019.95 1020.03 1020.11 1020.19 1020.27 1020.39 1020.43 1020.51 1020.59 1020.75 1020.83 1021.03 1021.27 1021.47 1021.59 1021.63 1021.75 1021.83 1021.87 1021.95 1022.11 1022.23 1022.43 1022.43 1022.59 1022.75 1022.83 1022.87 1022.95 1023.07 1023.23 1023.39 1023.63 1023.63 1024.03 1024.35 1025.19 1026.23 1026.31 1026.39 1026.19 1026.31 1025.99 1026.31 1026.51 1026.43
1017.35 1017.55 1017.71 1017.99 1018.19 1018.43 1018.67 1018.83 1018.95 1019.15 1019.19 1019.27 1019.43 1019.67 1019.79 1019.95 1020.03 1020.11 1020.15 1020.23 1020.27 1020.31 1020.35 1020.39 1020.47 1020.55 1020.67 1020.75 1020.91 1021.03 1021.19 1021.39 1021.55 1021.63 1021.71 1021.75 1021.91 1021.99 1022.15 1022.31 1022.35 1022.51 1022.71 1022.83 1022.99 1023.11 1023.27 1023.39 1023.51 1023.59 1023.67 1023.67 1023.83 1024.63 1025.15 1025.55 1025.87 1025.67 1025.91 1026.07 1025.83 1026.11 1026.39
1017.43 1017.63 1017.83 1017.99 1018.23 1018.47 1018.75 1018.91 1019.03 1019.15 1019.27 1019.39 1019.51 1019.71 1019.87 1019.95 1020.07 1020.19 1020.23 1020.35 1020.43 1020.47 1020.51 1020.55 1020.59 1020.63 1020.63 1020.79 1020.95 1021.07 1021.35 1021.35 1021.39 1021.59 1021.75 1021.83 1021.91 1021.99 1022.15 1022.35 1022.39 1022.51 1022.75 1022.91 1023.07 1023.19 1023.31 1023.47 1023.55 1023.63 1023.79 1023.87 1023.95 1024.07 1024.59 1024.75 1025.51 1025.67 1025.39 1026.07 1025.99 1025.67 1026.03
1017.67 1017.87 1018.07 1018.27 1018.43 1018.55 1018.75 1018.95 1019.19 1019.35 1019.39 1019.39 1019.47 1019.63 1019.75 1019.91 1020.03 1020.19 1020.31 1020.43 1020.55 1020.55 1020.63 1020.71 1020.71 1020.75 1020.75 1020.79 1020.95 1021.07 1021.31 1021.35 1021.39 1021.59 1021.75 1021.83 1021.91 1021.99 1022.15 1022.31 1022.43 1022.51 1022.75 1022.87 1023.07 1023.19 1023.39 1023.51 1023.59 1023.67 1023.95 1024.15 1024.23 1024.27 1024.35 1024.55 1024.83 1025.43 1025.63 1025.51 1025.63 1025.87 1025.87
1018.07 1018.11 1018.31 1018.43 1018.51 1018.67 1018.91 1019.07 1019.23 1019.31 1019.47 1019.59 1019.59 1019.67 1019.83 1019.95 1020.07 1020.19 1020.31 1020.47 1020.51 1020.63 1020.75 1020.83 1020.87 1020.87 1020.91 1021.07 1021.11 1021.19 1021.31 1021.31 1021.39 1021.59 1021.71 1021.95 1021.95 1022.07 1022.11 1022.19 1022.43 1022.59 1022.71 1022.83 1022.95 1023.19 1023.31 1023.47 1023.71 1023.83 1023.95 1024.15 1024.35 1024.47 1024.47 1024.59 1024.79 1025.19 1025.67 1025.75 1025.63 1025.67 1025.83
1018.07 1018.23 1018.43 1018.55 1018.63 1018.79 1018.99 1019.15 1019.35 1019.55 1019.63 1019.79 1019.71 1019.75 1019.83 1020.07 1020.15 1020.23 1020.35 1020.47 1020.59 1020.67 1020.71 1020.83 1020.95 1020.91 1020.99 1021.19 1021.35 1021.39 1021.39 1021.35 1021.43 1021.63 1021.71 1021.83 1021.99 1022.11 1022.23 1022.27 1022.39 1022.67 1022.71 1022.71 1022.95 1022.99 1023.19 1023.39 1023.51 1023.71 1023.91 1023.99 1024.19 1024.43 1024.35 1024.35 1024.67 1024.87 1025.51 1025.79 1025.87 1025.63 1025.87
1018.03 1018.27 1018.43 1018.55 1018.67 1018.79 1019.07 1019.27 1019.43 1019.55 1019.71 1019.87 1019.91 1019.83 1019.91 1020.03 1020.19 1020.27 1020.39 1020.55 1020.63 1020.75 1020.79 1020.91 1020.99 1020.95 1020.99 1021.03 1021.15 1021.35 1021.39 1021.39 1021.47 1021.59 1021.67 1021.75 1021.79 1021.99 1022.23 1022.35 1022.51 1022.67 1022.83 1022.83 1022.95 1022.91 1023.11 1023.27 1023.23 1023.35 1023.59 1023.71 1023.91 1024.15 1024.19 1024.11 1024.43 1024.75 1025.03 1025.31 1025.35 1025.59 1025.67
1017.91 1018.15 1018.35 1018.51 1018.71 1018.91 1019.11 1019.35 1019.51 1019.59 1019.71 1019.79 1019.91 1020.07 1020.03 1020.07 1020.19 1020.31 1020.43 1020.55 1020.67 1020.79 1020.87 1020.95 1020.99 1020.95 1020.95 1020.95 1021.07 1021.19 1021.35 1021.43 1021.43 1021.39 1021.47 1021.59 1021.71 1021.83 1021.95 1022.23 1022.51 1022.67 1022.75 1022.91 1022.95 1023.03 1023.11 1023.19 1023.31 1023.23 1023.51 1023.67 1023.83 1024.07 1024.11 1024.27 1024.15 1024.23 1024.55 1024.91 1025.23 1025.03 1025.19
1018.15 1018.31 1018.47 1018.59 1018.79 1018.99 1019.15 1019.39 1019.55 1019.63 1019.75 1019.83 1019.91 1020.03 1020.15 1020.11 1020.15 1020.23 1020.39 1020.47 1020.63 1020.71 1020.79 1020.87 1020.95 1021.07 1021.11 1021.11 1021.11 1021.19 1021.27 1021.35 1021.47 1021.51 1021.59 1021.71 1021.83 1021.79 1021.95 1022.07 1022.39 1022.55 1022.67 1022.83 1023.03 1023.03 1023.07 1023.27 1023.15 1023.31 1023.47 1023.51 1023.71 1023.87 1024.15 1024.23 1024.11 1024.19 1024.47 1024.63 1024.83 1024.83 1024.87
1018.39 1018.63 1018.83 1018.91 1019.07 1019.11 1019.23 1019.35 1019.51 1019.67 1019.67 1019.83 1019.99 1019.99 1020.07 1020.11 1020.03 1020.15 1020.23 1020.35 1020.47 1020.67 1020.75 1020.83 1020.87 1020.99 1021.07 1021.19 1021.27 1021.31 1021.39 1021.43 1021.51 1021.63 1021.79 1021.87 1021.91 1021.95 1022.03 1022.11 1022.31 1022.43 1022.55 1022.71 1022.87 1022.99 1023.07 1023.23 1023.27 1023.35 1023.39 1023.43 1023.51 1023.83 1024.15 1024.23 1024.23 1024.27 1024.27 1024.31 1024.35 1024.95 1025.11
1018.47 1018.71 1018.95 1019.11 1019.19 1019.27 1019.35 1019.39 1019.43 1019.63 1019.75 1019.79 1019.95 1020.07 1020.15 1020.23 1020.27 1020.19 1020.31 1020.39 1020.51 1020.67 1020.79 1020.87 1020.95 1021.11 1021.15 1021.19 1021.27 1021.39 1021.51 1021.55 1021.63 1021.75 1021.83 1021.95 1022.07 1022.15 1022.19 1022.23 1022.39 1022.43 1022.47 1022.51 1022.75 1022.91 1023.07 1023.27 1023.35 1023.43 1023.43 1023.59 1023.55 1023.71 1024.03 1024.03 1024.03 1024.19 1024.31 1024.31 1024.35 1024.35 1024.63
1018.59 1018.83 1019.07 1019.15 1019.35 1019.55 1019.63 1019.59 1019.59 1019.71 1019.83 1019.91 1019.99 1020.03 1020.19 1020.23 1020.35 1020.35 1020.43 1020.47 1020.63 1020.75 1020.91 1021.03 1021.07 1021.11 1021.15 1021.23 1021.31 1021.39 1021.47 1021.59 1021.59 1021.71 1021.87 1021.95 1022.11 1022.23 1022.31 1022.35 1022.39 1022.47 1022.51 1022.55 1022.59 1022.79 1022.95 1023.11 1023.27 1023.39 1023.43 1023.55 1023.59 1023.79 1023.87 1023.91 1023.99 1023.95 1024.07 1024.19 1024.15 1024.31 1024.31
1018.99 1019.19 1019.31 1019.47 1019.79 1019.95 1019.87 1019.83 1019.83 1019.87 1019.95 1020.03 1020.11 1020.15 1020.23 1020.27 1020.39 1020.47 1020.51 1020.59 1020.67 1020.91 1021.03 1021.15 1021.23 1021.31 1021.23 1021.27 1021.27 1021.39 1021.47 1021.47 1021.59 1021.67 1021.79 1021.95 1022.11 1022.19 1022.23 1022.31 1022.35 1022.39 1022.55 1022.71 1022.87 1022.87 1022.91 1022.99 1023.03 1023.15 1023.35 1023.43 1023.55 1023.67 1023.71 1023.71 1023.79 1023.83 1023.83 1023.91 1024.03 1023.99 1024.23
1019.31 1019.35 1019.55 1019.95 1020.31 1020.35 1020.23 1020.11 1020.15 1020.19 1020.27 1020.27 1020.27 1020.31 1020.35 1020.47 1020.51 1020.59 1020.67 1020.79 1021.07 1021.31 1021.51 1021.83 1022.19 1021.95 1021.91 1021.59 1021.47 1021.39 1021.51 1021.51 1021.47 1021.55 1021.75 1021.91 1022.07 1022.15 1022.19 1022.27 1022.39 1022.55 1022.63 1022.71 1022.79 1022.91 1023.03 1023.11 1023.15 1023.03 1022.95 1023.23 1023.39 1023.51 1023.59 1023.67 1023.67 1023.63 1023.63 1023.79 1023.71 1023.83 1024.11
1019.99 1020.03 1020.27 1020.43 1020.55 1020.55 1020.59 1020.47 1020.51 1020.59 1020.63 1020.63 1020.67 1020.59 1020.51 1020.51 1020.59 1020.67 1020.75 1020.99 1021.31 1021.83 1022.43 1022.91 1022.75 1022.15 1021.99 1021.99 1021.75 1021.75 1021.71 1021.67 1021.63 1021.63 1021.67 1021.79 1021.91 1022.03 1022.15 1022.23 1022.35 1022.67 1022.83 1022.87 1022.87 1022.95 1022.99 1023.11 1023.15 1023.27 1023.31 1023.19 1023.07 1023.15 1023.35 1023.55 1023.55 1023.55 1023.63 1023.59 1023.51 1023.71 1023.75
1020.31 1020.51 1020.51 1020.79 1020.95 1020.99 1020.99 1020.99 1021.07 1021.15 1021.15 1021.15 1021.15 1021.07 1020.99 1020.99 1020.95 1020.95 1021.03 1021.35 1021.83 1022.39 1023.15 1023.75 1023.39 1022.71 1022.39 1022.23 1022.03 1021.75 1021.79 1021.83 1021.91 1021.87 1021.87 1021.83 1021.71 1021.83 1021.99 1022.19 1022.35 1022.51 1022.55 1022.55 1022.51 1022.75 1022.95 1023.07 1023.11 1023.19 1023.27 1023.27 1023.27 1023.27 1023.19 1023.07 1023.15 1023.47 1023.55 1023.51 1023.55 1023.55 1023.63
1020.47 1020.63 1020.91 1021.07 1021.23 1021.31 1021.39 1021.63 1021.67 1021.63 1021.75 1021.83 1021.75 1021.67 1021.71 1021.63 1021.55 1021.43 1021.47 1021.75 1022.19 1022.63 1023.11 1023.83 1023.59 1023.27 1022.79 1022.39 1022.11 1021.75 1021.51 1021.75 1021.71 1021.87 1021.99 1022.11 1022.15 1022.19 1022.23 1022.31 1022.35 1022.47 1022.47 1022.83 1022.83 1022.59 1022.63 1022.87 1023.31 1023.47 1023.39 1023.43 1023.43 1023.31 1023.19 1023.15 1023.03 1022.83 1022.79 1023.07 1023.15 1023.15 1023.19
1020.83 1021.15 1021.35 1021.47 1021.51 1021.63 1021.83 1022.19 1022.19 1022.11 1022.15 1022.15 1022.27 1022.31 1022.35 1022.39 1022.27 1022.11 1022.11 1022.19 1022.51 1022.87 1023.23 1023.63 1023.43 1023.11 1022.91 1022.67 1022.31 1021.83 1021.71 1021.87 1021.87 1021.91 1021.99 1022.03 1022.11 1022.15 1022.27 1022.31 1022.31 1022.35 1022.35 1022.51 1022.51 1022.55 1022.55 1022.59 1022.79 1023.19 1023.31 1023.23 1022.99 1023.23 1023.47 1023.27 1023.11 1023.07 1022.91 1022.63 1022.59 1022.71 1022.47
1021.35 1021.55 1021.75 1021.91 1021.99 1022.15 1022.43 1022.59 1022.51 1022.55 1022.59 1022.71 1022.79 1022.87 1022.91 1022.95 1023.03 1022.91 1022.79 1022.71 1022.79 1023.19 1023.83 1023.91 1023.47 1023.15 1022.87 1022.67 1022.43 1021.95 1021.79 1021.83 1021.83 1021.95 1022.07 1022.19 1022.23 1022.27 1022.31 1022.31 1022.31 1022.27 1022.27 1022.27 1022.23 1022.43 1022.39 1022.39 1022.47 1022.55 1022.63 1022.63 1022.59 1022.59 1022.75 1022.91 1022.99 1022.83 1022.83 1022.67 1022.43 1022.27 1022.23
1021.87 1021.99 1022.07 1022.31 1022.55 1022.79 1022.91 1022.87 1022.99 1023.03 1023.03 1023.15 1023.35 1023.35 1023.43 1023.43 1023.43 1023.43 1023.35 1023.19 1023.07 1023.35 1023.99 1024.15 1023.83 1023.55 1023.23 1022.83 1022.39 1021.95 1021.95 1021.87 1021.91 1021.91 1021.99 1022.15 1022.19 1022.23 1022.27 1022.31 1022.31 1022.23 1022.23 1022.19 1022.31 1022.67 1022.71 1022.55 1022.47 1022.43 1022.35 1022.19 1022.15 1022.23 1022.23 1022.39 1022.71 1022.87 1022.75 1022.59 1022.47 1022.47 1022.43
1022.67 1022.83 1022.83 1022.87 1023.07 1023.19 1023.35 1023.47 1023.47 1023.31 1023.23 1023.43 1023.63 1023.91 1024.15 1024.23 1024.19 1024.07 1023.87 1023.63 1023.43 1023.51 1023.83 1024.31 1024.23 1023.95 1023.63 1023.27 1022.51 1022.19 1022.15 1021.99 1022.07 1022.19 1022.23 1022.35 1022.23 1022.27 1022.35 1022.39 1022.35 1022.27 1022.23 1022.19 1022.47 1022.79 1022.87 1022.95 1022.43 1022.23 1022.15 1022.03 1021.95 1021.95 1021.91 1022.19 1022.83 1022.95 1022.95 1022.99 1023.03 1022.99 1022.91
1023.19 1023.39 1023.31 1023.39 1023.67 1023.83 1023.95 1023.99 1024.03 1023.83 1023.83 1023.95 1023.99 1024.15 1024.23 1024.43 1024.55 1024.59 1024.55 1024.35 1024.11 1023.75 1023.95 1024.47 1024.47 1024.23 1023.95 1023.63 1023.03 1022.51 1022.31 1022.15 1022.23 1022.31 1022.27 1022.35 1022.35 1022.27 1022.47 1022.91 1022.79 1022.43 1022.23 1022.11 1022.55 1022.79 1022.87 1022.91 1022.35 1021.99 1021.79 1021.79 1021.79 1021.75 1021.63 1021.75 1022.35 1022.75 1023.11 1023.11 1023.03 1022.91 1022.91
1023.59 1023.91 1023.87 1023.75 1023.79 1023.95 1024.23 1024.35 1024.31 1024.15 1024.27 1024.35 1024.39 1024.27 1024.35 1024.47 1024.59 1024.67 1024.75 1024.67 1024.63 1024.07 1023.91 1024.15 1024.51 1024.47 1024.31 1024.03 1023.47 1022.83 1022.59 1022.35 1022.39 1022.55 1022.43 1022.23 1022.27 1022.23 1022.31 1022.43 1022.83 1022.95 1022.99 1023.07 1023.15 1023.03 1023.03 1022.95 1022.35 1021.95 1021.67 1021.59 1021.47 1021.35 1021.07 1021.03 1021.59 1022.03 1022.27 1022.51 1022.63 1022.71 1022.63
1024.03 1024.43 1024.51 1024.27 1023.99 1023.95 1024.03 1024.15 1024.47 1024.63 1024.75 1024.71 1024.63 1024.59 1024.55 1024.71 1024.95 1024.95 1024.91 1024.87 1024.79 1024.51 1024.19 1024.03 1024.31 1024.43 1024.35 1024.19 1023.95 1023.27 1022.87 1022.75 1022.87 1022.91 1022.79 1022.71 1022.51 1022.31 1022.31 1022.23 1022.31 1022.79 1023.15 1023.27 1023.27 1023.23 1023.19 1023.19 1022.71 1022.03 1021.75 1021.55 1021.31 1020.99 1020.75 1020.83 1020.99 1021.23 1021.55 1021.87 1021.91 1022.11 1022.11
1024.15 1024.35 1024.39 1024.35 1024.31 1024.31 1024.15 1024.07 1024.03 1024.11 1024.39 1024.51 1024.67 1024.87 1024.75 1024.79 1025.19 1025.23 1025.27 1025.19 1025.11 1024.91 1024.79 1024.43 1024.39 1024.67 1024.71 1024.75 1024.67 1024.11 1023.35 1023.51 1023.47 1023.39 1023.15 1022.95 1022.67 1022.51 1022.39 1022.35 1022.31 1022.63 1023.07 1023.19 1023.27 1023.27 1023.23 1023.15 1023.11 1022.59 1022.03 1021.55 1021.15 1020.95 1021.03 1020.91 1021.03 1021.51 1021.43 1021.51 1021.71 1021.91 1021.99
1024.35 1024.35 1024.27 1024.15 1024.15 1024.27 1024.31 1024.27 1024.27 1024.15 1024.03 1024.11 1024.27 1024.47 1024.71 1024.87 1025.11 1025.19 1025.23 1025.23 1025.23 1025.07 1024.87 1024.83 1024.47 1024.47 1024.63 1024.63 1024.67 1024.63 1023.95 1023.91 1024.27 1023.87 1023.39 1022.91 1022.67 1022.39 1022.39 1022.39 1022.39 1022.71 1023.11 1023.27 1023.31 1023.27 1023.11 1023.03 1022.95 1022.91 1022.19 1021.87 1021.67 1021.67 1021.55 1021.27 1021.11 1021.39 1021.39 1021.35 1021.35 1021.55 1021.71
1024.67 1024.59 1024.55 1024.43 1024.43 1024.55 1024.55 1024.55 1024.55 1024.47 1024.39 1024.31 1024.35 1024.35 1024.43 1024.59 1024.63 1024.71 1024.83 1024.91 1024.91 1024.71 1024.55 1024.43 1024.51 1024.47 1024.51 1024.51 1024.43 1024.35 1024.39 1024.19 1024.31 1023.87 1023.39 1023.11 1022.87 1022.63 1022.59 1022.67 1022.55 1022.87 1023.19 1023.43 1023.43 1023.31 1023.11 1022.83 1022.67 1022.19 1022.07 1022.03 1021.95 1021.95 1022.07 1021.51 1021.11 1021.11 1021.11 1021.11 1021.15 1021.19 1021.23
1024.83 1024.83 1024.79 1024.75 1024.83 1024.91 1024.95 1024.91 1024.79 1024.79 1024.75 1024.55 1024.35 1024.31 1024.31 1024.43 1024.31 1024.31 1024.23 1024.11 1024.07 1024.07 1024.11 1024.07 1024.07 1024.27 1024.31 1024.35 1024.35 1024.31 1024.23 1024.23 1024.23 1023.99 1023.83 1023.35 1023.03 1022.87 1022.67 1022.71 1022.83 1023.07 1023.03 1022.91 1022.87 1022.87 1022.79 1022.67 1022.35 1021.99 1021.91 1021.83 1021.87 1022.03 1021.79 1021.27 1021.03 1020.79 1020.83 1020.95 1021.11 1020.91 1020.79
Wind_Speed
7 7 6 5 4 5 5 5 4 4 3 4 4 4 4 4 4 4 4 5 5 4 5 5 5 5 6 6 6 5 4 4 5 5 6 6 6 4 1 0 2 5 7 2 9 7 8 9 6 5 6 6 6 6 5 5 5 4 4 3 4 5 4
4 6 6 5 6 6 7 5 5 4 3 3 3 3 3 4 5 5 5 5 5 5 5 4 4 4 6 7 7 4 3 3 2 5 6 6 3 2 3 3 4 6 5 4 4 7 8 9 8 7 5 5 6 5 4 4 4 3 3 4 4 5 5
5 5 6 6 5 6 6 5 5 4 4 4 3 3 3 3 4 5 5 5 5 5 5 5 5 4 4 5 5 3 3 3 1 4 6 6 5 4 3 3 5 5 6 6 5 6 6 5 8 10 8 8 6 4 3 3 4 3 3 3 4 5 5
8 7 7 7 6 6 6 6 5 5 4 4 3 3 3 3 4 4 4 5 5 5 6 5 6 7 7 6 5 5 4 5 3 2 3 6 6 5 6 5 5 8 8 7 8 7 6 7 9 9 8 6 7 6 3 3 2 3 4 3 4 4 4
8 7 7 7 6 6 5 5 4 4 3 3 2 3 3 3 4 4 4 5 5 5 5 5 5 6 7 7 6 6 7 5 4 5 8 9 10 7 7 5 3 2 2 4 7 7 7 7 9 10 8 8 6 4 4 3 3 3 3 4 4 4 3
8 8 7 7 5 6 5 5 5 5 4 4 3 3 3 4 3 4 5 5 5 5 4 4 4 5 6 6 8 8 7 8 7 8 8 9 10 8 7 4 3 4 3 1 5 6 5 7 9 10 8 7 6 6 5 4 4 3 3 4 4 3 4
7 7 7 7 6 5 5 6 5 5 5 4 4 3 3 3 2 2 3 4 4 5 5 4 4 5 7 6 6 6 7 7 6 10 9 7 7 8 4 4 4 4 2 3 5 5 7 8 8 9 9 5 6 6 5 3 4 4 3 3 3 3 3
7 7 6 6 6 6 4 4 4 3 4 4 3 3 3 3 3 2 3 3 4 5 5 5 4 4 4 4 7 8 7 6 7 6 5 5 5 6 5 4 3 2 3 4 6 6 7 8 9 10 10 10 6 4 5 4 4 1 5 4 4 4 4
6 6 5 5 5 5 5 5 4 4 2 3 3 3 2 2 3 3 4 4 4 4 4 5 5 5 5 5 5 5 5 4 5 6 5 5 5 6 5 4 3 3 4 4 6 6 6 7 8 8 8 9 9 7 4 5 4 4 5 5 4 4 5
8 8 7 7 6 4 4 4 4 4 3 3 4 3 4 3 3 3 3 3 3 3 4 4 4 4 5 5 4 5 5 5 5 5 4 4 4 5 4 5 5 4 4 3 3 4 4 5 7 7 7 7 7 8 7 6 6 5 7 6 6 6 7
7 7 6 7 6 5 4 4 3 4 3 3 4 3 4 5 4 3 3 3 2 2 3 3 3 3 4 3 3 3 3 4 4 3 3 3 3 4 4 5 5 4 4 5 4 4 4 5 6 7 6 5 6 7 7 8 7 5 6 6 4 7 8
5 6 5 6 5 5 6 4 4 4 3 4 4 5 4 4 4 3 4 4 3 3 2 2 3 3 3 3 3 3 3 3 3 3 3 3 3 4 5 6 5 5 5 5 5 5 5 5 6 6 4 3 4 4 7 6 6 5 4 7 6 4 9
5 5 5 6 5 5 5 5 5 5 4 3 3 4 4 4 3 4 3 4 5 4 4 3 2 3 2 2 3 3 3 3 4 3 3 3 3 4 5 6 5 5 5 5 5 5 6 5 5 5 5 4 3 2 4 5 4 7 5 5 6 6 7
4 4 5 5 6 5 5 4 4 3 4 3 3 4 4 4 3 3 4 4 4 4 4 3 2 3 2 2 2 2 4 4 4 4 4 4 3 4 4 4 5 4 5 5 5 5 5 6 5 4 5 5 4 3 4 4 3 5 5 1 3 5 6
5 4 6 5 5 5 5 4 4 4 4 3 3 4 4 3 3 4 4 4 4 4 4 4 4 3 4 4 4 2 3 4 5 5 4 5 4 3 3 4 4 4 5 6 5 6 6 7 7 7 6 6 6 5 5 5 3 4 7 5 5 4 5
6 7 6 5 5 5 5 5 4 5 4 4 2 3 4 4 4 4 4 3 4 4 4 4 3 3 4 5 5 4 3 4 5 6 5 5 5 5 5 4 4 4 3 5 6 5 5 6 7 7 7 6 6 6 7 5 4 5 7 8 7 7 7
8 7 6 5 6 5 5 4 3 4 4 4 4 3 3 4 5 4 4 4 3 3 4 4 4 3 3 4 5 5 4 3 2 3 4 4 4 4 4 4 4 5 5 6 6 5 5 5 6 6 6 6 5 6 5 4 5 3 5 6 8 8 8
6 5 4 4 5 6 5 5 4 4 4 4 4 4 3 3 4 4 4 4 4 3 3 3 4 4 3 2 3 4 4 3 3 3 3 3 3 3 3 3 4 5 6 5 5 5 5 7 6 5 6 5 5 4 4 5 5 4 4 6 6 6 5
6 6 5 5 5 4 5 5 5 4 4 5 4 3 4 3 3 4 4 4 4 3 3 2 3 3 4 3 3 3 3 3 3 3 3 3 3 2 2 3 3 3 4 5 5 5 5 7 5 6 7 6 6 4 5 5 5 5 6 6 5 6 5
7 7 6 5 4 4 3 4 5 6 4 5 5 4 3 3 2 3 4 3 3 3 3 2 2 3 3 3 3 3 3 3 3 3 3 3 3 3 2 2 2 2 2 2 4 5 6 5 4 6 5 5 5 5 5 6 7 7 7 7 5 5 6
7 7 6 6 5 4 3 2 3 4 4 4 4 4 4 3 3 2 3 3 3 2 2 2 2 2 3 2 2 2 3 3 3 3 3 3 3 2 2 3 3 2 2 1 2 3 4 5 4 4 3 4 4 5 5 5 6 7 7 7 7 6 6
7 6 6 6 6 5 4 3 3 3 3 2 2 2 2 2 3 3 3 3 3 2 2 2 2 1 1 3 2 3 3 3 3 3 3 3 2 2 2 2 2 2 2 3 2 1 1 1 3 4 3 4 4 4 4 4 5 6 6 6 6 5 5
7 7 8 8 6 5 5 5 5 5 4 4 3 3 3 3 2 2 2 3 5 5 5 4 6 7 6 3 1 1 2 3 4 4 3 3 3 3 3 3 2 3 5 5 6 6 6 5 4 3 2 5 5 4 4 4 5 5 6 6 7 6 7
7 9 7 7 6 7 7 6 6 7 6 6 5 5 4 4 4 4 5 6 7 6 5 5 7 7 6 4 1 1 1 1 1 2 3 4 4 4 4 3 3 4 4 5 6 8 8 8 8 5 4 5 5 5 6 6 6 5 6 6 6 6 7
10 9 9 9 8 7 7 8 8 7 7 8 6 6 7 6 6 6 7 9 8 7 6 9 8 8 6 5 1 2 2 1 0 1 1 1 2 2 3 2 2 2 4 4 3 4 5 7 8 7 5 8 8 8 6 6 6 5 6 7 6 6 7
11 11 10 9 8 8 9 9 8 9 9 7 6 8 7 7 7 7 8 9 9 8 7 10 9 9 8 7 4 1 2 2 1 1 1 0 2 2 2 2 2 1 0 2 3 4 4 4 6 6 6 6 7 10 10 9 8 7 6 7 7 7 8
12 11 10 9 9 10 10 9 8 7 7 8 8 8 9 9 7 8 8 8 8 8 9 10 10 11 10 8 5 2 4 3 2 2 1 1 1 1 1 2 3 3 1 2 2 3 4 4 4 5 5 6 6 7 8 9 11 10 8 7 8 8 7
11 11 11 10 10 11 10 8 9 8 8 8 8 8 8 8 8 7 7 6 7 8 8 11 12 13 12 9 7 3 4 3 2 3 3 3 2 2 1 1 3 4 3 4 3 3 4 5 5 4 5 6 7 6 6 7 7 7 6 6 7 8 6
10 9 11 10 10 10 9 9 9 6 7 8 7 7 8 8 8 8 6 6 7 8 9 13 13 14 13 11 6 5 4 4 4 3 3 3 3 2 2 2 3 3 3 4 2 5 6 5 5 6 7 7 7 6 6 3 1 3 3 3 4 4 3
9 8 7 8 8 8 8 8 7 4 7 7 8 8 7 7 7 7 8 7 7 7 8 11 12 13 13 13 7 5 4 4 4 4 4 3 2 2 2 3 3 4 5 5 4 0 5 5 6 7 8 8 6 6 6 4 5 2 3 3 4 4 5
8 7 7 8 7 7 6 5 6 5 6 5 7 6 5 5 6 6 7 8 7 5 7 9 11 12 13 13 8 6 5 4 4 4 3 3 2 2 2 2 4 4 5 6 6 3 3 4 6 7 7 8 8 8 8 5 3 3 5 4 1 3 3
9 7 7 7 7 7 6 5 5 5 5 5 5 4 4 4 5 5 6 6 8 7 6 7 10 11 11 12 9 5 5 5 5 5 5 4 3 2 3 1 3 2 4 7 10 9 6 6 7 8 9 9 9 9 9 7 6 6 5 4 3 3 3
9 7 5 6 7 6 5 5 5 5 5 3 4 4 5 5 5 5 5 5 5 6 7 7 10 11 12 12 12 7 5 5 5 5 5 5 6 5 4 4 2 6 7 8 8 8 7 7 7 8 8 9 10 13 8 7 6 6 5 5 6 6 5
8 7 5 6 6 6 5 5 5 5 4 3 4 4 4 5 3 4 3 3 4 4 5 6 7 8 8 8 8 8 3 4 3 3 4 4 3 4 3 3 4 5 8 8 9 10 10 8 8 8 9 10 11 8 5 9 5 6 6 6 6 5 5
6 6 6 6 7 7 6 6 5 5 4 4 5 5 4 3 3 2 0 1 2 3 3 4 6 6 7 7 5 6 4 3 3 4 4 3 4 4 4 4 4 3 6 9 12 12 12 10 9 7 9 12 13 11 8 9 7 4 6 6 6 6 6
7 6 7 7 7 7 5 5 5 5 4 3 4 3 3 2 1 1 2 2 1 1 2 2 3 5 6 6 7 5 4 4 3 4 4 6 6 5 5 5 4 4 7 7 8 10 12 13 10 9 11 12 13 13 9 9 10 6 7 7 7 7 8
7 7 7 6 6 5 5 3 3 3 3 3 2 2 2 2 2 2 3 3 2 3 3 4 2 3 5 6 5 4 4 4 4 5 5 5 5 6 6 6 8 13 14 13 11 10 10 11 9 12 12 12 11 9 7 9 10 9 7 6 7 8 8
Wind_Direction
175 167 157 143 137 139 137 130 123 126 143 154 154 166 170 166 169 166 175 180 183 180 177 186 185 184 181 183 187 185 165 156 163 168 145 135 189 182 12 140 103 138 145 21 152 156 143 140 120 88 71 73 85 77 55 52 54 62 66 69 84 87 77
125 132 143 137 133 131 128 132 131 128 129 133 149 152 162 167 168 168 170 175 173 173 187 180 185 184 183 176 180 177 173 167 153 87 113 174 191 154 167 132 137 147 140 115 119 133 143 140 137 133 120 98 97 77 57 50 54 59 65 71 75 87 87
136 131 152 145 142 145 135 131 133 141 147 153 153 160 158 168 168 168 173 178 178 178 192 189 174 180 187 185 160 171 192 190 116 159 180 181 202 188 214 151 149 146 144 135 145 131 128 144 149 151 146 143 129 94 61 62 71 78 94 92 96 93 89
143 139 147 146 143 147 143 141 145 143 149 143 152 155 163 164 167 174 180 189 188 186 194 182 183 183 181 187 164 163 166 191 193 184 233 208 204 203 208 192 175 173 175 174 164 162 148 138 136 143 148 139 121 127 84 59 81 102 106 101 100 97 97
149 152 148 138 140 141 139 139 138 141 140 140 153 150 161 175 177 177 184 190 194 194 191 191 183 175 173 180 169 180 192 184 171 186 217 223 211 208 210 204 174 242 198 186 163 163 159 150 147 146 147 141 138 112 122 116 109 113 115 114 108 109 109
153 145 142 139 147 151 154 149 154 152 151 159 161 158 151 169 175 179 188 190 190 193 192 190 189 155 178 176 176 179 183 189 202 215 210 214 205 209 210 178 158 205 206 110 156 162 144 141 141 141 143 157 142 141 141 156 132 121 122 133 135 127 123
146 144 149 153 161 160 162 161 164 162 165 162 158 156 137 155 176 176 177 180 184 185 189 190 183 172 171 186 140 190 188 193 198 214 216 207 210 215 210 195 186 179 150 161 156 154 149 147 147 143 142 141 144 139 140 149 137 148 141 149 140 136 130
148 153 159 159 159 161 163 162 162 161 171 155 154 120 127 135 130 149 159 165 161 175 180 183 185 181 179 146 173 183 182 192 193 200 202 198 209 212 204 214 182 154 153 171 170 176 167 163 154 151 150 142 135 141 149 147 156 169 138 148 160 153 153
149 153 152 156 156 160 157 168 160 160 155 141 128 129 117 126 132 133 142 142 144 148 160 169 172 179 179 177 170 176 174 171 180 190 190 194 207 204 201 176 192 164 161 173 185 174 178 165 153 157 161 156 152 153 164 159 179 143 166 157 163 172 164
155 160 158 158 155 147 148 156 151 146 147 147 134 127 127 130 135 133 127 128 137 143 147 152 159 159 165 173 164 160 165 167 184 184 184 197 188 186 182 176 193 158 166 164 174 163 159 158 160 166 172 165 166 154 163 168 182 167 176 187 167 173 181
159 158 156 154 152 148 143 143 134 148 160 136 130 126 129 133 134 133 124 123 121 127 129 135 144 144 156 155 147 149 141 157 163 164 180 189 177 185 174 176 180 167 154 172 166 160 156 166 167 174 180 174 171 165 165 166 165 187 161 187 205 162 180
153 152 152 147 148 151 150 151 149 142 135 145 139 136 136 129 129 126 125 130 134 133 129 128 134 144 157 141 141 131 139 165 162 153 154 173 171 183 177 176 175 165 155 163 154 158 163 169 174 176 174 179 189 176 169 169 158 175 185 175 193 175 172
150 150 150 150 157 156 150 147 142 148 157 152 135 128 127 125 128 127 126 131 138 137 137 134 144 143 153 133 142 147 140 162 161 157 154 170 168 185 179 182 176 164 156 158 162 162 166 173 173 176 169 178 180 183 181 177 177 163 193 187 172 176 175
131 139 148 158 156 142 138 141 147 140 138 146 137 130 126 126 126 124 131 137 137 138 137 139 145 148 148 137 126 124 145 163 158 145 145 148 156 174 181 180 169 153 159 165 160 163 172 172 170 169 166 173 174 180 194 188 187 141 156 166 174 176 170
144 149 151 159 158 148 147 144 133 141 147 130 146 131 125 116 120 129 129 133 134 135 137 139 153 160 152 143 135 137 148 152 142 136 144 140 144 149 158 175 165 154 173 181 164 176 172 175 181 182 180 185 184 180 204 199 185 177 170 174 194 186 170
146 153 157 157 158 147 132 129 145 150 139 131 115 120 121 122 124 129 129 127 133 130 133 137 150 158 146 144 137 135 139 144 147 150 147 144 146 146 151 153 154 154 163 174 174 179 166 181 189 192 188 190 191 187 193 211 183 189 182 183 186 185 187
148 153 155 155 148 139 134 129 136 133 129 138 131 110 116 125 131 134 128 130 134 135 139 141 145 151 143 140 140 142 145 143 139 128 127 134 137 146 137 134 137 149 162 171 178 174 177 177 188 195 191 189 200 193 196 199 221 226 197 184 188 200 187
126 132 131 135 136 134 132 132 136 139 138 134 130 131 127 131 135 141 144 145 143 144 144 146 142 138 132 125 128 136 142 139 132 118 106 109 121 129 139 130 134 147 157 160 169 182 182 185 192 196 201 199 208 198 192 209 220 215 208 210 186 197 180
99 95 98 98 103 118 136 144 139 137 146 137 133 135 138 144 142 139 144 141 141 135 135 140 141 139 132 131 126 122 124 132 126 114 104 97 95 84 88 108 129 146 154 159 164 169 175 185 191 201 207 212 208 194 202 204 216 215 225 225 212 178 195
104 103 99 102 106 122 135 135 144 142 146 145 147 147 148 146 136 132 125 132 136 138 139 138 131 136 140 143 143 130 127 124 123 111 106 105 97 88 100 124 137 154 167 161 161 170 171 181 191 206 208 205 216 205 203 214 211 211 216 223 217 216 199
93 90 95 92 91 90 92 104 114 118 140 151 153 155 161 161 140 148 128 134 119 127 144 156 155 155 160 164 162 157 146 140 127 125 120 116 112 115 115 134 152 162 163 163 173 160 172 180 181 198 195 201 202 200 207 203 206 212 211 215 224 206 211
84 79 69 68 63 61 76 84 84 93 92 92 81 101 116 153 156 155 145 141 136 95 60 33 28 359 189 176 190 180 175 168 160 144 142 142 144 149 154 148 164 160 143 114 92 22 299 333 198 207 189 196 195 202 208 205 206 210 213 218 214 207 206
74 73 66 61 47 39 49 67 67 64 61 56 61 66 91 98 102 121 139 76 66 63 55 53 18 37 24 2 312 254 197 190 181 178 176 170 173 187 185 186 167 145 160 175 180 188 194 214 250 289 233 190 198 204 207 210 211 214 220 220 224 212 213
57 70 77 71 62 61 56 56 62 60 55 52 50 52 61 71 75 81 85 90 83 70 48 24 10 56 60 37 4 25 308 269 261 201 190 188 193 191 194 197 187 170 188 187 202 199 196 195 207 216 264 246 232 211 205 212 219 214 222 231 230 223 232
75 67 66 66 61 59 56 54 55 52 52 49 45 48 52 53 62 73 81 80 75 67 61 20 12 42 65 78 71 155 127 89 32 338 327 277 238 213 201 186 193 188 216 219 232 194 206 210 202 200 210 214 220 244 263 239 225 211 217 233 231 228 233
79 73 67 65 65 63 62 59 53 54 52 41 44 49 43 45 51 62 74 76 71 63 62 25 28 31 34 38 31 211 108 117 150 122 111 342 338 338 343 329 304 257 25 115 259 247 234 201 207 213 205 205 221 218 221 238 255 248 218 226 240 239 228
75 71 64 60 62 63 62 58 57 58 57 50 46 47 43 42 44 55 66 77 75 64 51 21 33 38 36 32 26 43 78 78 77 75 61 29 347 328 318 308 298 289 236 204 232 234 235 242 206 196 209 218 218 202 224 222 225 239 248 235 233 241 234
75 75 73 67 61 62 63 58 54 51 56 54 49 44 38 41 36 41 50 61 71 62 44 19 32 33 31 25 11 23 66 73 67 66 55 49 26 11 339 297 276 277 279 265 248 243 253 238 225 223 227 228 229 221 208 211 216 218 217 229 239 241 250
65 75 81 72 68 66 61 61 61 57 65 63 54 48 42 36 35 36 37 46 64 64 47 27 28 30 24 13 3 49 42 41 39 31 41 37 27 21 5 342 311 298 293 285 162 187 255 284 261 248 239 235 232 221 222 166 67 356 312 277 255 263 276
65 55 66 76 71 67 68 62 58 52 67 64 61 52 44 38 26 21 19 31 49 62 53 30 28 29 26 8 10 43 36 43 43 40 37 23 11 8 355 350 335 320 320 315 21 325 238 238 260 259 258 254 247 235 234 185 152 163 240 263 298 307 286
60 60 60 70 72 73 67 67 62 35 61 65 69 66 60 54 44 31 19 20 21 47 56 41 29 29 27 16 5 28 21 26 29 23 12 23 15 1 61 93 302 315 312 311 8 322 272 229 267 263 261 260 258 252 244 206 171 173 105 87 118 267 284
68 47 56 65 72 73 76 70 60 61 68 70 76 77 66 61 51 39 24 11 3 20 37 46 34 28 28 24 13 25 19 17 14 13 355 350 356 354 350 136 127 4 353 337 330 315 293 241 275 271 267 267 260 255 252 224 187 201 204 197 203 205 217
76 71 52 61 64 68 69 79 87 84 66 62 70 69 77 62 41 31 15 6 9 14 20 26 29 20 22 20 12 3 24 18 10 356 347 339 329 334 340 334 31 68 18 353 333 316 294 254 265 273 272 262 260 258 257 251 214 224 212 214 222 210 225
76 78 77 73 70 60 56 60 61 73 93 94 92 81 60 74 76 58 20 355 1 24 26 15 30 27 28 27 13 355 30 32 9 334 316 299 295 302 305 321 314 4 359 352 346 336 317 285 255 270 268 255 250 284 328 267 233 197 235 219 210 206 207
66 68 64 67 68 66 59 58 55 52 51 57 63 73 83 91 85 84 92 292 357 6 39 38 10 18 21 12 26 11 6 44 25 322 303 307 312 314 322 322 315 15 20 353 333 322 311 303 280 256 259 265 282 287 262 266 262 201 224 219 217 208 202
66 63 62 60 62 61 54 54 52 52 55 59 57 56 65 61 113 148 188 196 205 352 10 18 31 0 5 356 356 7 15 351 345 313 336 326 327 322 319 313 306 6 332 307 288 290 294 293 287 262 254 256 260 262 265 253 252 226 218 213 208 207 201
69 64 62 66 67 66 57 51 55 46 39 30 28 32 27 16 354 351 340 338 359 3 359 351 348 15 351 342 339 346 352 350 351 347 325 308 313 315 317 325 321 321 311 307 297 280 268 266 262 268 271 269 267 260 251 247 238 230 217 204 203 209 207